Alpine, TX

9:47 AM CST on December 08, 2016 (GMT -0600)
Alpine

Weather History for KE38 - December, 2013

Change the Weather History Date:

Thursday, December 5, 2013

  Actual Average (KMRF) Record (KMRF)
Temperature  
Mean Temperature 44 °F -  
Max Temperature 62 °F 56 °F 73 °F (2007)
Min Temperature 27 °F 27 °F 19 °F (1999)
Degree Days  
Heating Degree Days 20    
Moisture  
Dew Point 32 °F    
Average Humidity 81    
Maximum Humidity 100    
Minimum Humidity 35    
Precipitation  
Precipitation 0.09 in - - ()
Sea Level Pressure  
Sea Level Pressure 30.02 in    
Wind  
Wind Speed 9 mph (ENE)    
Max Wind Speed 18 mph    
Max Gust Speed 25 mph    
Visibility 6 miles    
Events      
Averages and records for this station are not official NWS values.
T = Trace of Precipitation, MM = Missing Value Source: NWS Daily Summary

Daily Weather History Graph

Daily Weather History Graph

Search for Another Location

Airport or City:

Trip Planner

Search our weather history database for the weather conditions in past years. The results will help you decide how hot, cold, wet, or windy it might be!

Date:

Astronomy

Dec. 05, 2013 Rise Set
Actual Time 7:37 AM CST 5:53 PM CST
Civil Twilight 7:10 AM CST 6:20 PM CST
Nautical Twilight 6:41 AM CST 6:49 PM CST
Astronomical Twilight 6:11 AM CST 7:19 PM CST
Moon 10:04 AM CST (12/5) 9:10 PM CST (12/5)
Length of Visible Light 11h 09m
Length of Day
10h 16m
Waxing Crescent, 11% of the Moon is Illuminated
Dec 5
Waxing Crescent
Dec 9
First Quarter
Dec 17
Full
Dec 25
Last Quarter
Jan 1
New

Hourly Weather History & Observations

Time (CST) Temp. Windchill Dew Point Humidity Pressure Visibility Wind Dir Wind Speed Gust Speed Precip Events Conditions
12:15 AM 62.1 °F - 33.8 °F 35% 29.97 in 10.0 mi WSW 11.5 mph - N/A   Clear
12:35 AM 60.4 °F - 33.4 °F 36% 29.97 in 10.0 mi WSW 6.9 mph - N/A   Clear
12:55 AM 59.4 °F - 33.4 °F 38% 29.97 in 10.0 mi WSW 8.1 mph - N/A   Clear
1:15 AM 57.7 °F - 33.6 °F 40% 29.97 in 10.0 mi SW 8.1 mph - N/A   Clear
1:35 AM 55.2 °F - 33.6 °F 44% 29.98 in 10.0 mi SW 8.1 mph - N/A   Clear
1:55 AM 56.3 °F - 33.8 °F 43% 29.97 in 10.0 mi SW 9.2 mph - N/A   Scattered Clouds
2:15 AM 55.6 °F - 33.8 °F 44% 29.96 in 10.0 mi SW 8.1 mph - N/A   Scattered Clouds
2:35 AM 55.4 °F - 34.0 °F 44% 29.96 in 10.0 mi SW 6.9 mph - N/A   Scattered Clouds
2:55 AM 56.7 °F - 34.5 °F 43% 29.95 in 10.0 mi SW 11.5 mph - N/A   Mostly Cloudy
3:15 AM 58.5 °F - 34.7 °F 41% 29.96 in 10.0 mi WSW 11.5 mph - N/A   Mostly Cloudy
3:35 AM 60.3 °F - 37.0 °F 42% 29.96 in 10.0 mi SW 13.8 mph - N/A   Mostly Cloudy
3:55 AM 59.7 °F - 39.7 °F 48% 29.96 in 10.0 mi SW 9.2 mph - N/A   Mostly Cloudy
4:15 AM 59.2 °F - 39.4 °F 48% 29.96 in 10.0 mi SSW 9.2 mph - N/A   Mostly Cloudy
4:35 AM 60.4 °F - 40.1 °F 47% 29.95 in 10.0 mi WSW 9.2 mph - N/A   Scattered Clouds
4:55 AM 60.8 °F - 40.3 °F 47% 29.93 in 10.0 mi SW 9.2 mph - N/A   Scattered Clouds
5:15 AM 59.5 °F - 41.0 °F 50% 29.93 in 10.0 mi SW 8.1 mph - N/A   Scattered Clouds
5:35 AM 61.7 °F - 41.9 °F 48% 29.93 in 10.0 mi SW 11.5 mph - N/A   Scattered Clouds
5:55 AM 61.2 °F - 42.4 °F 50% 29.93 in 10.0 mi SW 11.5 mph - N/A   Scattered Clouds
6:15 AM 61.0 °F - 43.0 °F 52% 29.93 in 10.0 mi WSW 10.4 mph - N/A   Scattered Clouds
6:35 AM 60.8 °F - 42.8 °F 52% 29.93 in 10.0 mi SW 10.4 mph 16.1 mph N/A   Clear
6:55 AM 61.5 °F - 42.8 °F 50% 29.96 in 10.0 mi West 6.9 mph - N/A   Scattered Clouds
7:15 AM 47.1 °F - 36.9 °F 68% 29.96 in 10.0 mi ENE 18.4 mph 25.3 mph N/A   Overcast
7:35 AM 43.3 °F 35.8 °F 35.2 °F 73% 29.99 in 10.0 mi ENE 16.1 mph 24.2 mph N/A   Overcast
7:55 AM 40.8 °F 33.7 °F 33.6 °F 76% 30.01 in 10.0 mi NE 12.7 mph - N/A   Overcast
8:15 AM 39.4 °F 32.3 °F 33.1 °F 78% 30.02 in 10.0 mi NE 11.5 mph - N/A   Overcast
8:35 AM 37.8 °F 29.0 °F 32.0 °F 80% 30.05 in 10.0 mi NE 15.0 mph 20.7 mph N/A   Overcast
8:55 AM 35.8 °F 26.1 °F 31.5 °F 84% 30.07 in 10.0 mi ENE 16.1 mph 19.6 mph N/A   Overcast
9:15 AM 32.7 °F 22.5 °F 31.1 °F 94% 30.13 in 3.0 mi NE 15.0 mph 18.4 mph 0.02 in   Overcast
9:35 AM 32.0 °F 22.1 °F 31.5 °F 98% 30.13 in 3.0 mi East 13.8 mph - 0.06 in   Overcast
9:55 AM 31.1 °F 21.4 °F 30.4 °F 97% 30.15 in 4.0 mi East 12.7 mph - 0.06 in   Overcast
10:15 AM 31.1 °F 21.4 °F 30.4 °F 97% 30.14 in 4.0 mi East 12.7 mph - N/A   Overcast
10:35 AM 30.4 °F 20.5 °F 29.7 °F 97% 30.13 in 7.0 mi East 12.7 mph - N/A   Overcast
10:55 AM 30.0 °F 21.7 °F 29.3 °F 97% 30.12 in 7.0 mi East 9.2 mph - N/A   Overcast
11:15 AM 30.2 °F 23.4 °F 29.5 °F 97% 30.12 in 7.0 mi ENE 6.9 mph - N/A   Overcast
11:35 AM 30.2 °F 23.4 °F 29.5 °F 97% 30.11 in 5.0 mi East 6.9 mph - N/A   Overcast
11:55 AM 30.0 °F 24.1 °F 29.5 °F 98% 30.11 in 7.0 mi East 5.8 mph - N/A   Overcast
12:15 PM 30.6 °F 25.8 °F 29.7 °F 96% 30.09 in 7.0 mi ENE 4.6 mph - N/A   Overcast
12:35 PM 30.9 °F 26.2 °F 29.8 °F 96% 30.07 in 10.0 mi ENE 4.6 mph - N/A   Overcast
12:55 PM 31.5 °F 25.8 °F 30.2 °F 95% 30.06 in 10.0 mi ENE 5.8 mph - 0.01 in   Overcast
1:15 PM 32.0 °F 27.5 °F 30.6 °F 94% 30.04 in 10.0 mi ENE 4.6 mph - N/A   Overcast
1:35 PM 32.4 °F 29.1 °F 31.1 °F 95% 30.03 in 10.0 mi NE 3.5 mph - N/A   Overcast
1:55 PM 32.5 °F 29.3 °F 31.3 °F 95% 30.02 in 10.0 mi NE 3.5 mph - N/A   Overcast
2:15 PM 32.7 °F 29.6 °F 31.6 °F 96% 30.02 in 10.0 mi NE 3.5 mph - N/A   Overcast
2:35 PM 32.5 °F 28.1 °F 31.6 °F 96% 30.00 in 10.0 mi ENE 4.6 mph - N/A   Overcast
2:55 PM 32.4 °F 26.0 °F 31.6 °F 97% 30.00 in 10.0 mi NE 6.9 mph - N/A   Overcast
3:15 PM 32.4 °F 26.9 °F 31.8 °F 98% 30.00 in 7.0 mi ENE 5.8 mph - N/A   Overcast
3:35 PM 32.2 °F 27.7 °F 31.6 °F 98% 30.00 in 7.0 mi NNE 4.6 mph - N/A   Overcast
3:55 PM 32.0 °F 25.6 °F 31.6 °F 99% 30.01 in 7.0 mi ENE 6.9 mph - N/A   Overcast
4:15 PM 32.0 °F 25.6 °F 31.5 °F 98% 30.00 in 4.0 mi ENE 6.9 mph - N/A   Overcast
4:35 PM 31.6 °F 24.4 °F 31.1 °F 98% 30.02 in 3.0 mi ENE 8.1 mph - N/A   Overcast
4:55 PM 30.9 °F 23.5 °F 30.6 °F 99% 30.02 in 0.2 mi ENE 8.1 mph - N/A   Overcast
5:15 PM 30.7 °F 24.9 °F 30.6 °F 99% 30.02 in 0.2 mi ENE 5.8 mph - N/A   Overcast
5:35 PM 30.6 °F 24.7 °F 30.2 °F 99% 30.02 in 0.2 mi East 5.8 mph - N/A   Overcast
5:55 PM 30.2 °F 24.3 °F 30.2 °F 100% 30.02 in 0.2 mi ENE 5.8 mph - N/A   Overcast
6:15 PM 30.2 °F 22.6 °F 30.0 °F 99% 30.00 in 0.5 mi East 8.1 mph - N/A   Overcast
6:35 PM 29.8 °F 23.0 °F 29.7 °F 99% 30.00 in 1.0 mi ENE 6.9 mph - 0.01 in   Overcast
6:55 PM 30.0 °F 23.2 °F 29.8 °F 99% 30.02 in 5.0 mi East 6.9 mph - 0.02 in   Overcast
7:15 PM 29.8 °F 24.9 °F 29.5 °F 99% 30.01 in 10.0 mi NE 4.6 mph - N/A   Overcast
7:35 PM 29.8 °F 24.9 °F 29.7 °F 99% 30.03 in 4.0 mi ENE 4.6 mph - N/A   Overcast
7:55 PM 29.5 °F 24.5 °F 29.3 °F 99% 30.03 in 1.5 mi East 4.6 mph - N/A   Overcast
8:15 PM 29.3 °F 21.5 °F 29.3 °F 100% 30.04 in 0.8 mi ENE 8.1 mph - N/A   Overcast
8:35 PM 29.1 °F 21.3 °F 28.8 °F 99% 30.05 in 2.0 mi ENE 8.1 mph - N/A   Overcast
8:55 PM 28.8 °F 22.6 °F 28.4 °F 99% 30.05 in 1.0 mi East 5.8 mph - N/A   Overcast
9:15 PM 28.4 °F 19.7 °F 28.2 °F 99% 30.06 in 1.8 mi East 9.2 mph - N/A   Overcast
9:35 PM 28.0 °F 20.0 °F 27.5 °F 98% 30.06 in 0.8 mi NE 8.1 mph - N/A   Overcast
9:55 PM 28.2 °F 20.2 °F 27.7 °F 98% 30.09 in 2.0 mi NNE 8.1 mph - N/A   Overcast
10:15 PM 27.5 °F 22.2 °F 27.1 °F 99% 30.08 in 1.8 mi ENE 4.6 mph - N/A   Overcast
10:35 PM 27.5 °F 21.1 °F 27.1 °F 99% 30.07 in 1.0 mi East 5.8 mph - N/A   Overcast
10:55 PM 27.5 °F 22.2 °F 27.3 °F 99% 30.08 in 1.2 mi East 4.6 mph - N/A   Overcast
11:15 PM 27.9 °F 22.6 °F 27.5 °F 99% 30.08 in 1.5 mi ENE 4.6 mph - N/A   Overcast
11:35 PM 27.7 °F 20.4 °F 27.3 °F 99% 30.09 in 1.0 mi ENE 6.9 mph - N/A   Overcast
11:55 PM 27.5 °F 21.1 °F 27.1 °F 99% 30.08 in 1.0 mi ENE 5.8 mph - N/A   Overcast